Location: Stull Observatory
(42.2506°N, 77.7903°W)
Time: 22:28:25
(UTC-04:00)

Daily predictions for brighter satellites

Satellite Brightness Start Highest point End
(mag) Time Altitude Azimuth Time Altitude Azimuth Time Altitude Azimuth
Cosmos 1943 Rocket 3.5 20:58:05 10° NW 21:03:14 38° WSW 21:08:18 10° S
Cosmos 2074 Rocket 4.2 20:58:09 10° N 21:04:21 59° E 21:10:31 10° SSE
Cosmos 1025 Rocket 4.2 21:01:22 10° SE 21:04:47 24° E 21:08:12 10° NE
GENESIS II 4.3 21:03:19 10° NNW 21:07:17 67° NE 21:11:09 10° SE
Spot 1 4.2 21:02:50 10° SSE 21:07:18 68° ENE 21:11:32 10° N
Cosmos 2184 Rocket 4.2 21:01:19 10° N 21:07:37 61° E 21:13:49 10° SSE
Aureole 1 Rocket 2.7 21:06:16 10° S 21:09:21 39° ESE 21:12:11 10° NE
Cosmos 405 Rocket 2.6 21:12:13 10° S 21:15:58 84° E 21:19:50 10° N
DEBRIS 3.5 21:15:12 10° SW 21:18:23 74° SE 21:28:36 10° ENE
Meteor 1-19 Rocket 4.3 21:14:42 10° S 21:20:30 82° E 21:26:16 10° NNE
ARGOS 4.3 21:17:24 10° ESE 21:21:56 28° ENE 21:26:29 10° N
Okean 2 4.4 21:18:42 10° SSE 21:22:09 27° E 21:25:37 10° NNE
Cosmos 923 Rocket 4.3 21:17:03 10° SSW 21:22:22 76° WNW 21:27:42 10° NNE
Lacrosse 5 rocket 4.4 21:22:00 10° NNW 21:24:03 13° N 21:26:09 10° NNE
Tiangong 2 1.1 21:21:12 10° WSW 21:24:22 65° SSE 21:27:31 10° E
Cosmos 1441 Rocket 3.3 21:21:11 10° S 21:24:48 53° E 21:28:28 10° NNE
ERS-1 Rocket 3.3 21:21:52 10° SE 21:26:41 50° ENE 21:31:32 10° N
Resurs 01 Rocket 3.7 21:24:29 10° SSW 21:28:12 26° W 21:31:56 10° NW
CENTAUR R/B 3.6 21:20:23 10° NW 21:28:13 62° WSW 21:36:29 10° SSE
Terra 4.1 21:31:24 10° ENE 21:32:21 11° ENE 21:33:17 10° NE
SPOT 5 3.8 21:30:14 12° ESE 21:33:35 27° ENE 21:37:17 10° N
Meteor 1-29 3.0 21:30:58 10° N 21:34:21 79° WNW 21:37:42 10° SSW
Nadezhda 1 Rocket 4.0 21:30:52 10° S 21:37:12 76° E 21:43:37 10° N
H-2A R/B 4.4 21:39:28 10° ENE 21:40:54 11° ENE 21:42:20 10° NE
MOS 1-B Rocket 4.3 21:35:57 11° SE 21:41:19 55° ENE 21:47:40 10° N
MetOp-B 4.5 21:36:55 12° SE 21:41:43 51° ENE 21:46:54 10° N
Meteor 1-15 Rocket 4.3 21:36:43 10° N 21:42:16 60° ENE 21:47:18 12° SSE
COSMOS 2406 3.9 21:37:08 10° SW 21:42:47 60° WNW 21:48:26 10° NNE
Cosmos 2278 4.5 21:39:39 10° N 21:45:01 40° ENE 21:49:20 15° ESE
Cosmos 2082 Rocket 3.3 21:41:51 13° SSE 21:45:33 23° E 21:49:54 10° NE
Cosmos 1743 4.4 21:45:45 10° NNW 21:49:16 33° W 21:52:47 10° SSW
Cosmos 2154 Rocket 4.1 21:45:23 10° N 21:51:46 72° E 21:57:43 12° SSE
CZ-4B DEB 4.3 21:49:31 10° SSW 21:52:12 31° W 21:54:55 10° NNW
CRYOSAT 2 4.4 21:49:20 10° S 21:54:10 89° W 21:59:03 10° N
Cosmos 1238 Rocket 4.2 21:49:51 10° S 21:56:37 83° W 22:03:05 10° N
Aureole 3 Rocket 4.4 21:52:36 10° SSW 21:58:34 50° W 22:02:55 10° N
ISS -2.8 21:56:00 10° WSW 21:59:14 50° NNW 22:02:28 10° NE
ASTEX 1 3.6 21:55:46 10° S 22:00:40 71° W 22:05:34 10° N
Cosmos 1624 Rocket 4.0 21:56:20 10° NNW 22:01:39 80° ENE 22:05:36 18° SSE
OAO 2 Rocket 4.1 21:58:09 10° WSW 22:02:35 34° S 22:05:08 21° SE
H-2A R/B 2.7 21:59:49 18° SE 22:02:54 38° ENE 22:07:33 10° N
Cosmos 2369 4.0 21:59:16 10° NNW 22:04:55 56° ENE 22:08:44 20° SE
Cosmos 1697 Rocket 3.9 22:00:42 10° N 22:05:37 30° NE 22:09:12 16° ESE
TELKOM 3 4.4 22:03:33 10° NW 22:05:47 37° NNE 22:07:27 19° E
Cosmos 2228 3.7 22:03:23 10° N 22:07:25 38° ENE 22:09:27 23° SE
SL-27 R/B 4.3 22:04:20 10° SW 22:07:42 34° WNW 22:11:04 10° N
Cosmos 967 Rocket 4.4 22:02:06 10° SSW 22:08:18 72° ESE 22:14:35 10° NE
YAOGAN 6 3.9 22:06:46 10° SSW 22:09:59 34° W 22:13:14 10° NNW
Cosmos 921 Rocket 3.2 22:05:39 10° N 22:10:06 59° ENE 22:12:33 25° SE
Cosmos 1656 4.2 22:08:09 10° NNW 22:13:24 46° ENE 22:16:38 22° ESE
Meteor 1-4 Rocket 3.9 22:10:38 10° NNE 22:13:35 23° ENE 22:14:27 21° E
SL-08 RB Rocket 3.8 22:12:25 24° SSE 22:15:02 62° ENE 22:19:29 10° N
Cosmos 1892 Rocket 3.5 22:15:23 17° S 22:18:48 76° E 22:23:13 10° N
Cosmos 2056 Rocket 3.5 22:15:46 10° NNW 22:20:56 75° WSW 22:24:17 22° S
Cosmos 1833 Rocket 3.0 22:19:03 19° SSE 22:22:40 43° ESE 22:27:58 10° NE
Cosmos 1437 Rocket 3.2 22:19:00 10° NNW 22:22:47 57° W 22:25:17 20° S
NOSS 8 (E) 4.3 22:20:46 10° SSW 22:24:12 72° ESE 22:27:54 10° NE
Cosmos 2341 Rocket 4.0 22:18:12 10° N 22:24:35 88° W 22:29:28 18° S
Cosmos 1606 Rocket 4.0 22:26:10 10° NNW 22:30:26 58° W 22:33:14 20° SSW
PSLV R/B 4.5 22:30:36 10° W 22:32:59 25° SSW 22:32:59 25° SSW
Cosmos 839 Rocket 4.4 22:28:12 10° NW 22:34:48 81° WSW 22:39:48 25° SSE
Cosmos 2218 Rocket 4.1 22:29:58 10° N 22:36:04 60° E 22:39:18 28° SSE
Cosmos 1066 Rocket 4.2 22:34:17 25° SSE 22:37:26 63° E 22:43:01 10° NNE
Cosmos 1726 Rocket 4.1 22:35:56 10° NNW 22:40:09 54° W 22:42:38 23° SSW
USA 245 3.3 22:42:20 34° WSW 22:42:31 35° WSW 22:44:43 10° NNW
COSMOS 2487 2.8 22:43:44 24° SSW 22:45:46 66° WNW 22:49:20 10° NNE
CZ-3A R/B 2.0 22:48:37 10° WSW 22:50:15 22° W 22:50:15 22° W
CARTOSAT-1 3.8 22:50:14 41° SE 22:51:23 55° ENE 22:55:37 10° N
Cosmos 1452 Rocket 3.4 22:47:38 10° NNW 22:52:57 87° ENE 22:55:04 38° SSE
Cosmos 1980 Rocket 2.9 22:48:38 10° NNW 22:54:01 43° ENE 22:56:23 28° ESE
Landsat 7 3.7 22:52:27 38° SSE 22:54:16 87° E 22:59:04 10° NNW
SPOT 1/Viking Rocket 3.8 22:51:40 28° S 22:54:20 65° WSW 22:59:30 10° NNW
Cosmos 2058 Rocket 3.7 22:50:27 10° NNW 22:54:46 52° W 22:56:51 28° SSW
Cosmos 2181 Rocket 4.4 22:49:25 12° SSW 22:55:24 64° W 23:01:40 10° N
Cosmos 1766 3.6 22:55:30 10° N 22:59:17 47° ENE 22:59:35 45° E
Tiangong 2 1.1 22:57:56 10° W 23:00:58 75° NW 23:00:58 75° NW
Cosmos 1544 4.4 22:58:29 10° NNE 23:01:29 28° ENE 23:01:29 28° ENE
ARGOS 4.1 22:58:32 19° SSW 23:01:58 40° W 23:07:05 10° NNW
Cosmos 2322 Rocket 4.0 22:59:52 10° N 23:04:09 21° NE 23:07:11 14° E
Lacrosse 5 rocket 4.0 23:01:45 10° NNW 23:04:59 18° NNE 23:08:13 10° ENE
USA 267 4.0 23:00:31 10° ENE 23:05:41 29° ESE 23:05:41 29° ESE
Terra 1.7 23:07:57 48° SSE 23:09:18 86° ENE 23:14:05 10° NNW
SPOT 5 4.3 23:09:28 18° SW 23:11:38 26° W 23:15:19 10° NW
H-2A R/B 2.1 23:15:12 54° S 23:16:13 83° WSW 23:20:46 10° NNW
Cosmos 1812 Rocket 3.5 23:13:19 10° N 23:17:49 80° E 23:18:32 62° SSE
IGS 5A 3.4 23:18:14 62° SSW 23:18:51 78° WSW 23:23:02 10° NNW
SeaSat 1 4.5 23:17:12 13° E 23:19:43 19° NE 23:23:07 10° N
PSLV R/B 4.4 23:24:25 37° NNW 23:24:25 37° NNW 23:26:15 10° NNW
Cosmos 1758 4.1 23:20:46 10° N 23:24:21 38° ENE 23:24:21 38° ENE
Meteor 2-21 Rocket 4.4 23:20:18 10° N 23:26:21 77° W 23:28:37 40° S
Lacrosse 5 4.0 23:30:33 13° E 23:30:33 13° E 23:31:15 10° ENE
Cosmos 1626 Rocket 4.1 23:26:20 38° SW 23:27:37 53° W 23:31:52 10° N
Spot 4 3.8 23:26:55 56° SE 23:27:45 70° ENE 23:32:33 10° N
Cosmos 2082 Rocket 2.9 23:23:42 10° SW 23:29:13 52° WNW 23:34:46 10° NNE
ATLAS CENTAUR R/B 3.3 23:27:18 10° N 23:29:50 17° NE 23:30:40 16° ENE
CZ-2C R/B 4.2 23:26:11 10° NE 23:30:19 21° E 23:30:19 21° E
Cosmos 1805 3.5 23:27:15 10° N 23:30:53 58° ENE 23:30:53 58° ENE
SL-19 R/B 4.1 23:25:55 10° NNE 23:31:16 78° WNW 23:33:15 39° SSW
Meteor 1-22 Rocket 4.4 23:27:45 10° NNW 23:32:57 59° W 23:34:40 40° SSW
USA 229 DEB 3.8 23:29:04 10° NW 23:36:16 83° NE 23:39:05 41° SE
ISS -0.8 23:33:57 10° NW 23:36:18 18° N 23:38:39 10° NE
USA 229 3.8 23:29:10 10° NW 23:36:22 83° NE 23:39:12 41° SE
Cosmos 1953 Rocket 4.2 23:40:02 44° E 23:40:02 44° E 23:44:00 10° NNE
Cosmos 1825 Rocket 3.6 23:41:26 65° E 23:41:26 65° E 23:45:33 10° NNE
H-2A R/B 3.6 23:40:27 20° SW 23:42:26 25° W 23:46:33 10° NW
ALOS 2 4.2 23:46:15 24° ENE 23:46:36 24° ENE 23:50:07 10° NNE
Cosmos 158 Rocket 4.2 23:46:06 41° SW 23:47:55 71° WNW 23:53:18 10° NNE
Cosmos 1697 Rocket 3.4 23:44:27 10° NW 23:49:42 41° WSW 23:50:57 36° SW
Cosmos 2360 4.1 23:44:57 10° NNW 23:50:42 84° WSW 23:51:48 60° SSE
CZ-4C R/B 3.7 23:52:04 55° NNW 23:52:04 55° NNW 23:55:00 10° NNW
